TimeAST,TemperatureF,Dew PointF,Humidity,Sea Level PressureIn,VisibilityMPH,Wind Direction,Wind SpeedMPH,Gust SpeedMPH,PrecipitationIn,Events,Conditions,WindDirDegrees,DateUTC
12:00 AM,82.4,75.2,79,29.89,6.2,SE,5.8,-,N/A,,Partly Cloudy,130,2012-10-26 04:00:00
1:00 AM,82.4,75.2,79,29.89,6.2,SE,9.2,-,N/A,,Partly Cloudy,130,2012-10-26 05:00:00
2:00 AM,82,75,75,29.86,37,SE,6.9,,,,Scattered Clouds,130,2012-10-26 06:00:00
2:00 AM,82.4,75.2,79,29.86,6.2,SE,6.9,-,N/A,,Partly Cloudy,130,2012-10-26 06:00:00
3:00 AM,82.4,75.2,79,29.83,6.2,SE,6.9,-,N/A,,Partly Cloudy,130,2012-10-26 07:00:00
5:00 AM,82,76,76,29.85,37,SE,4.6,,,,Scattered Clouds,130,2012-10-26 09:00:00
5:00 AM,82.4,75.2,79,29.83,6.2,SE,4.6,-,N/A,,Partly Cloudy,130,2012-10-26 09:00:00
6:00 AM,82.4,75.2,79,29.83,6.2,SE,4.6,-,N/A,,Scattered Clouds,130,2012-10-26 10:00:00
7:00 AM,82.4,75.2,79,29.86,6.2,ESE,6.9,-,N/A,,Scattered Clouds,120,2012-10-26 11:00:00
8:00 AM,84,76,71,29.89,31,SE,8.1,,,,Partly Cloudy,130,2012-10-26 12:00:00
8:00 AM,84.2,77.0,79,29.89,6.2,SE,8.1,-,N/A,,Scattered Clouds,130,2012-10-26 12:00:00
9:00 AM,84.2,75.2,74,29.89,6.2,SSE,8.1,-,N/A,,Scattered Clouds,150,2012-10-26 13:00:00
10:00 AM,86.0,77.0,74,29.89,6.2,SE,11.5,-,N/A,,Scattered Clouds,130,2012-10-26 14:00:00
11:00 AM,86.0,77.0,74,29.89,6.2,SSE,11.5,-,N/A,,Scattered Clouds,150,2012-10-26 15:00:00
12:00 PM,86.0,77.0,74,29.86,6.2,SSE,12.7,-,N/A,,Scattered Clouds,150,2012-10-26 16:00:00
1:00 PM,86.0,77.0,74,29.86,6.2,SE,12.7,-,N/A,,Partly Cloudy,140,2012-10-26 17:00:00
2:00 PM,85,77,72,29.84,37,SSE,17.3,,,,Partly Cloudy,150,2012-10-26 18:00:00
2:00 PM,86.0,77.0,74,29.83,6.2,SE,17.3,-,N/A,,Scattered Clouds,130,2012-10-26 18:00:00
3:00 PM,84.2,77.0,79,29.80,6.2,SE,15.0,-,N/A,,Scattered Clouds,140,2012-10-26 19:00:00
4:00 PM,84.2,77.0,79,29.83,6.2,SE,12.7,-,N/A,,Scattered Clouds,140,2012-10-26 20:00:00
5:00 PM,84,78,76,29.84,34,SSE,12.7,,,,Scattered Clouds,150,2012-10-26 21:00:00
5:00 PM,84.2,77.0,79,29.83,6.2,SE,13.8,-,N/A,,Partly Cloudy,130,2012-10-26 21:00:00
6:00 PM,84.2,77.0,79,29.86,6.2,SE,10.4,-,N/A,,Partly Cloudy,140,2012-10-26 22:00:00
7:00 PM,84.2,77.0,79,29.86,6.2,SE,10.4,-,N/A,,Partly Cloudy,140,2012-10-26 23:00:00
8:00 PM,83,77,79,29.88,31,SSE,13.8,,,,Scattered Clouds,150,2012-10-27 00:00:00
8:00 PM,84.2,77.0,79,29.89,6.2,SE,12.7,-,N/A,,Partly Cloudy,140,2012-10-27 00:00:00
9:00 PM,84.2,77.0,79,29.89,6.2,SE,10.4,-,N/A,,Partly Cloudy,140,2012-10-27 01:00:00
10:00 PM,78.8,73.4,83,29.89,6.2,Variable,2.3,-,N/A,Rain,Light Rain,0,2012-10-27 02:00:00
11:00 PM,81,76,82,29.89,9,SE,9.2,,,Rain,Light Rain,130,2012-10-27 03:00:00
11:00 PM,80.6,77.0,89,29.89,6.2,SE,5.8,-,N/A,,Mostly Cloudy,130,2012-10-27 03:00:00